User: anonymous   Login
Location: Newark
(33.6439°N, 114.9881°W)
Time: 10:01:34
(UTC+00:00)
Language:

N. Korean satellite - Orbit

View from above orbital plane
View from above orbital plane
View from above satellite
View from above satellite

Ground track
Ground track

The orbit data is extracted from the following two-line orbital elements,

1 39026U 12072A   19113.79345008  .00001305  00000-0  50077-4 0  9995
2 39026  97.2119 118.7577 0036640 301.5223  58.2439 15.27665950353066
Epoch (UTC): 23 April 2019 19:02:34
Eccentricity: 0.0036640
inclination: 97.2119°
perigee height: 457 km
apogee height: 508 km
right ascension of ascending node: 118.7577°
argument of perigee: 301.5223°
revolutions per day: 15.27665950
mean anomaly at epoch: 58.2439°
orbit number at epoch: 35306

The dashed part of the orbit path shows where the satellite is in the earth's shadow,  

DLR